This demonstration page uses our WeatherBlox Daily Observations layout. Learn more.

Left ArrowRight Arrow

Hourly Observations for March 6, 2019

Temp ( °F °C ) Dew Point ( °F °C ) Humidity (%) Winds ( mph kmh ) Pressure ( in mb ) Visibility ( mi km ) Precip ( " mm )
12:15 am 00:15 Mostly Cloudy 13 -10.7 4 -15.3 69 69 W 9 15 30.38 1029 10 16 0.00 0.00
12:35 am 00:35 Cloudy 13 -10.6 5 -15.2 69 69 W 13 20 30.38 1029 10 16 0.00 0.00
1:15 am 01:15 Cloudy 13 -10.6 5 -15 70 70 W 12 19 30.38 1029 10 16 0.00 0.00
1:35 am 01:35 Cloudy 13 -10.8 6 -14.5 74 74 WNW 9 15 30.38 1029 10 16 0.00 0.00
1:55 am 01:55 Cloudy 13 -10.8 7 -13.7 79 79 WNW 8 13 30.39 1029 7 11 0.00 0.00
2:15 am 02:15 Cloudy with Light Snow 12 -11 8 -13.2 84 84 WNW 9 15 30.39 1029 7 11 0.00 0.00
2:35 am 02:35 Mostly Cloudy 12 -11 6 -14.7 74 74 W 14 22 30.40 1030 10 16 0.00 0.00
2:55 am 02:55 Mostly Cloudy 12 -11.1 7 -14.1 79 79 W 13 20 30.40 1030 10 16 0.00 0.00
3:15 am 03:15 Cloudy with Light Snow 13 -10.8 8 -13.5 81 81 WNW 7 11 30.40 1030 7 11 0.00 0.00
3:35 am 03:35 Cloudy with Light Snow 12 -11 9 -13 85 85 WNW 7 11 30.40 1030 4 6 0.00 0.00
3:55 am 03:55 Cloudy with Light Snow 12 -11.1 9 -13 86 86 W 6 9 30.40 1030 3 5 0.00 0.00
4:15 am 04:15 Cloudy with Light Snow 12 -11 8 -13.4 83 83 WNW 8 13 30.40 1030 3 5 0.00 0.00
4:35 am 04:35 Cloudy with Light Snow 12 -11.1 9 -12.6 89 89 NW 9 15 30.40 1030 2 3 0.00 0.00
4:55 am 04:55 Cloudy with Light Snow 11 -11.5 9 -13 89 89 NW 7 11 30.41 1030 2 2 0.00 0.00
5:15 am 05:15 Cloudy with Light Snow 11 -11.6 7 -13.9 83 83 NW 8 13 30.42 1030 7 11 0.00 0.00
5:35 am 05:35 Cloudy 11 -11.7 7 -14 83 83 WNW 6 9 30.42 1030 10 16 0.00 0.00
5:55 am 05:55 Cloudy 11 -11.8 6 -14.3 82 82 WNW 3 6 30.43 1030 10 16 0.00 0.00
6:15 am 06:15 Cloudy with Light Snow 11 -11.6 7 -14.1 82 82 W 6 9 30.43 1030 10 16 0.00 0.00
6:35 am 06:35 Cloudy 10 -12 5 -15.1 78 78 WNW 7 11 30.44 1031 10 16 0.00 0.00
6:55 am 06:55 Mostly Cloudy 9 -12.6 4 -15.8 77 77 W 7 11 30.44 1031 10 16 0.00 0.00
7:15 am 07:15 Mostly Cloudy with Light Snow 10 -12.1 4 -15.4 77 77 W 8 13 30.44 1031 5 8 0.00 0.00
7:35 am 07:35 Mostly Cloudy 9 -12.8 3 -16.2 76 76 W 7 11 30.45 1031 10 16 0.00 0.00
7:55 am 07:55 Partly Cloudy 9 -12.7 3 -16.1 76 76 W 8 13 30.46 1031 10 16 0.00 0.00
8:15 am 08:15 Mostly Cloudy 10 -12.5 4 -15.6 78 78 WSW 9 15 30.47 1032 10 16 0.00 0.00
8:35 am 08:35 Cloudy 10 -12.3 5 -15 80 80 W 9 15 30.48 1032 10 16 0.00 0.00
8:55 am 08:55 Mostly Cloudy 10 -12.3 5 -15.1 80 80 WSW 10 17 30.48 1032 10 16 0.00 0.00
9:15 am 09:15 Partly Cloudy 10 -12.1 5 -15.2 78 78 W 8 13 30.49 1032 10 16 0.00 0.00
9:35 am 09:35 Sunny 11 -11.5 5 -15.2 74 74 W 8 13 30.50 1033 10 16 0.00 0.00
9:55 am 09:55 Sunny 12 -11.3 5 -15.1 74 74 W 10 17 30.50 1033 10 16 0.00 0.00
10:15 am 10:15 Sunny 13 -10.8 5 -15 72 72 W 12 19 30.50 1033 10 16 0.00 0.00
10:35 am 10:35 Sunny 13 -10.6 5 -15.1 70 70 W 14 22 30.49 1033 10 16 0.00 0.00
10:55 am 10:55 Sunny 13 -10.4 5 -14.9 70 70 WSW 15 24 30.48 1032 10 16 0.00 0.00
11:15 am 11:15 Sunny 14 -9.8 7 -14.1 71 71 WSW 10 17 30.48 1032 10 16 0.00 0.00
11:35 am 11:35 Sunny 15 -9.5 7 -14.1 69 69 WSW 14 22 30.48 1032 10 16 0.00 0.00
11:55 am 11:55 Sunny 16 -9 7 -13.7 69 69 WSW 15 24 30.47 1032 10 16 0.00 0.00
12:15 pm 12:15 Sunny 17 -8.6 7 -13.8 66 66 W 12 19 30.46 1032 10 16 0.00 0.00
12:35 pm 12:35 Sunny 17 -8.2 8 -13.3 67 67 WSW 14 22 30.46 1032 10 16 0.00 0.00
12:55 pm 12:55 Sunny 18 -7.9 8 -13.6 64 64 W 13 20 30.45 1031 10 16 0.00 0.00
1:15 pm 13:15 Sunny 19 -7.3 10 -12.5 67 67 WSW 16 26 30.45 1031 10 16 0.00 0.00
1:35 pm 13:35 Sunny 19 -7 9 -13 63 63 WSW 15 24 30.44 1031 10 16 0.00 0.00
1:55 pm 13:55 Sunny 20 -6.4 10 -12.5 62 62 WSW 10 17 30.42 1030 10 16 0.00 0.00
2:15 pm 14:15 Sunny 21 -6.1 10 -12.3 62 62 WSW 17 28 30.41 1030 10 16 0.00 0.00
2:35 pm 14:35 Sunny 22 -5.7 11 -11.9 62 62 W 15 24 30.41 1030 10 16 0.00 0.00
2:55 pm 14:55 Sunny 22 -5.5 11 -11.8 62 62 WSW 15 24 30.40 1029 10 16 0.00 0.00
3:15 pm 15:15 Sunny 23 -5.1 10 -12.1 58 58 W 18 30 30.38 1029 10 16 0.00 0.00
3:35 pm 15:35 Sunny 24 -4.7 11 -11.4 60 60 WSW 16 26 30.38 1029 10 16 0.00 0.00
3:55 pm 15:55 Sunny 24 -4.5 11 -11.5 58 58 WSW 15 24 30.37 1028 10 16 0.00 0.00
4:15 pm 16:15 Sunny 24 -4.5 12 -11.3 59 59 WSW 13 20 30.37 1028 10 16 0.00 0.00
4:35 pm 16:35 Sunny 24 -4.7 11 -11.6 59 59 WSW 17 28 30.37 1028 10 16 0.00 0.00
4:55 pm 16:55 Sunny 24 -4.2 11 -11.5 57 57 WSW 15 24 30.35 1028 10 16 0.00 0.00
5:15 pm 17:15 Sunny 25 -3.8 12 -11 58 58 WSW 16 26 30.35 1028 10 16 0.00 0.00
5:35 pm 17:35 Sunny 25 -4.1 13 -10.8 60 60 WSW 9 15 30.35 1028 10 16 0.00 0.00
5:55 pm 17:55 Sunny 25 -4.1 12 -10.9 60 60 WSW 12 19 30.34 1028 10 16 0.00 0.00
6:15 pm 18:15 Sunny 24 -4.2 12 -11.1 59 59 WSW 10 17 30.34 1028 10 16 0.00 0.00
6:35 pm 18:35 Sunny 24 -4.3 13 -10.8 61 61 WSW 7 11 30.35 1028 10 16 0.00 0.00
6:55 pm 18:55 Clear 24 -4.4 13 -10.6 62 62 WSW 10 17 30.35 1028 10 16 0.00 0.00
7:15 pm 19:15 Clear 24 -4.5 12 -11 61 61 WSW 10 17 30.34 1027 10 16 0.00 0.00
7:35 pm 19:35 Clear 24 -4.7 12 -11.2 61 61 WSW 10 17 30.35 1028 10 16 0.00 0.00
7:55 pm 19:55 Clear 23 -5 12 -11.1 63 63 WSW 9 15 30.36 1028 10 16 0.00 0.00
8:15 pm 20:15 Clear 22 -5.3 13 -10.8 66 66 WSW 10 17 30.36 1028 10 16 0.00 0.00
8:35 pm 20:35 Clear 23 -5.1 13 -10.6 66 66 WSW 7 11 30.36 1028 10 16 0.00 0.00
8:55 pm 20:55 Clear 23 -5.1 13 -10.4 67 67 WSW 9 15 30.36 1028 10 16 0.00 0.00
9:15 pm 21:15 Clear 23 -5.1 13 -10.3 67 67 WSW 8 13 30.35 1028 10 16 0.00 0.00
9:35 pm 21:35 Clear 23 -5 14 -10.2 67 67 WSW 13 20 30.35 1028 10 16 0.00 0.00
9:55 pm 21:55 Clear 22 -5.3 13 -10.3 68 68 SW 12 19 30.35 1028 10 16 0.00 0.00
10:15 pm 22:15 Clear 22 -5.4 13 -10.5 68 68 WSW 9 15 30.35 1028 10 16 0.00 0.00
10:35 pm 22:35 Clear 22 -5.6 13 -10.4 69 69 SW 10 17 30.35 1028 10 16 0.00 0.00
10:55 pm 22:55 Clear 22 -5.6 13 -10.5 69 69 SW 12 19 30.34 1027 10 16 0.00 0.00
11:15 pm 23:15 Clear 22 -5.7 13 -10.3 70 70 WSW 10 17 30.35 1028 10 16 0.00 0.00
11:35 pm 23:35 Clear 22 -5.7 14 -10.2 71 71 SW 12 19 30.35 1028 10 16 0.00 0.00
11:55 pm 23:55 Clear 21 -6 14 -10.1 73 73 WSW 10 17 30.34 1027 10 16 0.00 0.00

Powered by AerisWeather